#datetime,building,power
2022-09-19T00:00:00,crh,2.94
2022-09-19T00:01:00,crh,2.94
2022-09-19T00:02:00,crh,2.93
2022-09-19T00:03:00,crh,2.93
2022-09-19T00:04:00,crh,3.04
2022-09-19T00:05:00,crh,2.93
2022-09-19T00:06:00,crh,4.52
2022-09-19T00:07:00,crh,2.95
2022-09-19T00:08:00,crh,2.84
2022-09-19T00:09:00,crh,2.84
2022-09-19T00:10:00,crh,4.42
2022-09-19T00:11:00,crh,6.28
2022-09-19T00:12:00,crh,6.58
2022-09-19T00:13:00,crh,6.78
2022-09-19T00:14:00,crh,6.80
2022-09-19T00:15:00,crh,6.61
2022-09-19T00:16:00,crh,8.23
2022-09-19T00:17:00,crh,4.51
2022-09-19T00:18:00,crh,2.90
2022-09-19T00:19:00,crh,2.90
2022-09-19T00:20:00,crh,2.84
2022-09-19T00:21:00,crh,4.46
2022-09-19T00:22:00,crh,2.84
2022-09-19T00:23:00,crh,2.85
2022-09-19T00:24:00,crh,2.83
2022-09-19T00:25:00,crh,2.84
2022-09-19T00:26:00,crh,4.01
2022-09-19T00:27:00,crh,2.85
2022-09-19T00:28:00,crh,2.84
2022-09-19T00:29:00,crh,4.43
2022-09-19T00:30:00,crh,2.86
2022-09-19T00:31:00,crh,4.44
2022-09-19T00:32:00,crh,2.87
2022-09-19T00:33:00,crh,2.85
2022-09-19T00:34:00,crh,4.70
2022-09-19T00:35:00,crh,3.24
2022-09-19T00:36:00,crh,3.25
2022-09-19T00:37:00,crh,4.80
2022-09-19T00:38:00,crh,3.24
2022-09-19T00:39:00,crh,3.24
2022-09-19T00:40:00,crh,3.24
2022-09-19T00:41:00,crh,3.24
2022-09-19T00:42:00,crh,4.79
2022-09-19T00:43:00,crh,4.91
2022-09-19T00:44:00,crh,4.50
2022-09-19T00:45:00,crh,3.33
2022-09-19T00:46:00,crh,3.40
2022-09-19T00:47:00,crh,3.39
2022-09-19T00:48:00,crh,4.95
2022-09-19T00:49:00,crh,4.96
2022-09-19T00:50:00,crh,4.95
2022-09-19T00:51:00,crh,3.40
2022-09-19T00:52:00,crh,3.38
2022-09-19T00:53:00,crh,4.94
2022-09-19T00:54:00,crh,3.38
2022-09-19T00:55:00,crh,5.33
2022-09-19T00:56:00,crh,5.36
2022-09-19T00:57:00,crh,5.34
2022-09-19T00:58:00,crh,5.35
2022-09-19T00:59:00,crh,6.92
2022-09-19T01:00:00,crh,3.32
2022-09-19T01:01:00,crh,4.88
2022-09-19T01:02:00,crh,4.89
2022-09-19T01:03:00,crh,3.47
2022-09-19T01:04:00,crh,3.48
2022-09-19T01:05:00,crh,3.47
2022-09-19T01:06:00,crh,3.31
2022-09-19T01:07:00,crh,3.23
2022-09-19T01:08:00,crh,3.23
2022-09-19T01:09:00,crh,8.25
2022-09-19T01:10:00,crh,7.04
2022-09-19T01:11:00,crh,8.47
2022-09-19T01:12:00,crh,7.95
2022-09-19T01:13:00,crh,8.52
2022-09-19T01:14:00,crh,6.96
2022-09-19T01:15:00,crh,3.23
2022-09-19T01:16:00,crh,4.78
2022-09-19T01:17:00,crh,4.77
2022-09-19T01:18:00,crh,3.22
2022-09-19T01:19:00,crh,3.22
2022-09-19T01:20:00,crh,3.22
2022-09-19T01:21:00,crh,4.77
2022-09-19T01:22:00,crh,3.22
2022-09-19T01:23:00,crh,4.84
2022-09-19T01:24:00,crh,3.29
2022-09-19T01:25:00,crh,3.29
2022-09-19T01:26:00,crh,2.91
2022-09-19T01:27:00,crh,2.90
2022-09-19T01:28:00,crh,4.45
2022-09-19T01:29:00,crh,3.95
2022-09-19T01:30:00,crh,4.45
2022-09-19T01:31:00,crh,4.46
2022-09-19T01:32:00,crh,2.86
2022-09-19T01:33:00,crh,2.83
2022-09-19T01:34:00,crh,2.85
2022-09-19T01:35:00,crh,2.84
2022-09-19T01:36:00,crh,4.40
2022-09-19T01:37:00,crh,2.84
2022-09-19T01:38:00,crh,2.84
2022-09-19T01:39:00,crh,2.84
2022-09-19T01:40:00,crh,2.84
2022-09-19T01:41:00,crh,2.85
2022-09-19T01:42:00,crh,2.84
2022-09-19T01:43:00,crh,4.39
2022-09-19T01:44:00,crh,2.85
2022-09-19T01:45:00,crh,4.41
2022-09-19T01:46:00,crh,2.83
2022-09-19T01:47:00,crh,2.83
2022-09-19T01:48:00,crh,2.84
2022-09-19T01:49:00,crh,4.51
2022-09-19T01:50:00,crh,4.49
2022-09-19T01:51:00,crh,4.50
2022-09-19T01:52:00,crh,4.11
2022-09-19T01:53:00,crh,3.11
2022-09-19T01:54:00,crh,3.12
2022-09-19T01:55:00,crh,2.96
2022-09-19T01:56:00,crh,2.95
2022-09-19T01:57:00,crh,4.51
2022-09-19T01:58:00,crh,3.03
2022-09-19T01:59:00,crh,3.01
2022-09-19T02:00:00,crh,4.56
2022-09-19T02:01:00,crh,4.55
2022-09-19T02:02:00,crh,2.99
2022-09-19T02:03:00,crh,2.99
2022-09-19T02:04:00,crh,2.99
2022-09-19T02:05:00,crh,2.97
2022-09-19T02:06:00,crh,3.19
2022-09-19T02:07:00,crh,2.93
2022-09-19T02:08:00,crh,2.93
2022-09-19T02:09:00,crh,8.07
2022-09-19T02:10:00,crh,6.58
2022-09-19T02:11:00,crh,6.62
2022-09-19T02:12:00,crh,6.71
2022-09-19T02:13:00,crh,6.62
2022-09-19T02:14:00,crh,6.61
2022-09-19T02:15:00,crh,2.83
2022-09-19T02:16:00,crh,2.85
2022-09-19T02:17:00,crh,2.84
2022-09-19T02:18:00,crh,4.40
2022-09-19T02:19:00,crh,2.84
2022-09-19T02:20:00,crh,4.40
2022-09-19T02:21:00,crh,2.84
2022-09-19T02:22:00,crh,2.86
2022-09-19T02:23:00,crh,2.84
2022-09-19T02:24:00,crh,2.84
2022-09-19T02:25:00,crh,2.85
2022-09-19T02:26:00,crh,2.86
2022-09-19T02:27:00,crh,2.84
2022-09-19T02:28:00,crh,4.61
2022-09-19T02:29:00,crh,4.88
2022-09-19T02:30:00,crh,4.79
2022-09-19T02:31:00,crh,4.85
2022-09-19T02:32:00,crh,6.43
2022-09-19T02:33:00,crh,4.44
2022-09-19T02:34:00,crh,2.91
2022-09-19T02:35:00,crh,2.93
2022-09-19T02:36:00,crh,2.92
2022-09-19T02:37:00,crh,2.90
2022-09-19T02:38:00,crh,2.90
2022-09-19T02:39:00,crh,2.90
2022-09-19T02:40:00,crh,2.90
2022-09-19T02:41:00,crh,2.90
2022-09-19T02:42:00,crh,2.90
2022-09-19T02:43:00,crh,3.00
2022-09-19T02:44:00,crh,3.00
2022-09-19T02:45:00,crh,2.85
2022-09-19T02:46:00,crh,2.85
2022-09-19T02:47:00,crh,2.86
2022-09-19T02:48:00,crh,2.84
2022-09-19T02:49:00,crh,2.84
2022-09-19T02:50:00,crh,4.39
2022-09-19T02:51:00,crh,4.41
2022-09-19T02:52:00,crh,2.85
2022-09-19T02:53:00,crh,2.85
2022-09-19T02:54:00,crh,4.41
2022-09-19T02:55:00,crh,4.39
2022-09-19T02:56:00,crh,2.84
2022-09-19T02:57:00,crh,3.19
2022-09-19T02:58:00,crh,3.98
2022-09-19T02:59:00,crh,4.49
2022-09-19T03:00:00,crh,3.03
2022-09-19T03:01:00,crh,4.49
2022-09-19T03:02:00,crh,4.50
2022-09-19T03:03:00,crh,2.93
2022-09-19T03:04:00,crh,2.93
2022-09-19T03:05:00,crh,2.94
2022-09-19T03:06:00,crh,2.95
2022-09-19T03:07:00,crh,2.99
2022-09-19T03:08:00,crh,3.45
2022-09-19T03:09:00,crh,16.00
2022-09-19T03:10:00,crh,17.55
2022-09-19T03:11:00,crh,15.89
2022-09-19T03:12:00,crh,6.74
2022-09-19T03:13:00,crh,6.68
2022-09-19T03:14:00,crh,2.99
2022-09-19T03:15:00,crh,4.54
2022-09-19T03:16:00,crh,2.99
2022-09-19T03:17:00,crh,4.54
2022-09-19T03:18:00,crh,2.98
2022-09-19T03:19:00,crh,2.92
2022-09-19T03:20:00,crh,2.93
2022-09-19T03:21:00,crh,2.84
2022-09-19T03:22:00,crh,2.84
2022-09-19T03:23:00,crh,4.05
2022-09-19T03:24:00,crh,4.40
2022-09-19T03:25:00,crh,4.40
2022-09-19T03:26:00,crh,2.84
2022-09-19T03:27:00,crh,2.84
2022-09-19T03:28:00,crh,4.39
2022-09-19T03:29:00,crh,4.40
2022-09-19T03:30:00,crh,4.40
2022-09-19T03:31:00,crh,4.05
2022-09-19T03:32:00,crh,2.84
2022-09-19T03:33:00,crh,3.00
2022-09-19T03:34:00,crh,4.56
2022-09-19T03:35:00,crh,2.84
2022-09-19T03:36:00,crh,2.86
2022-09-19T03:37:00,crh,2.90
2022-09-19T03:38:00,crh,2.83
2022-09-19T03:39:00,crh,3.00
2022-09-19T03:40:00,crh,2.84
2022-09-19T03:41:00,crh,4.39
2022-09-19T03:42:00,crh,3.32
2022-09-19T03:43:00,crh,2.84
2022-09-19T03:44:00,crh,2.83
2022-09-19T03:45:00,crh,2.91
2022-09-19T03:46:00,crh,4.89
2022-09-19T03:47:00,crh,3.32
2022-09-19T03:48:00,crh,3.30
2022-09-19T03:49:00,crh,4.86
2022-09-19T03:50:00,crh,4.85
2022-09-19T03:51:00,crh,3.29
2022-09-19T03:52:00,crh,3.29
2022-09-19T03:53:00,crh,3.28
2022-09-19T03:54:00,crh,3.28
2022-09-19T03:55:00,crh,3.23
2022-09-19T03:56:00,crh,4.78
2022-09-19T03:57:00,crh,4.89
2022-09-19T03:58:00,crh,4.88
2022-09-19T03:59:00,crh,5.25
2022-09-19T04:00:00,crh,5.35
2022-09-19T04:01:00,crh,5.37
2022-09-19T04:02:00,crh,5.34
2022-09-19T04:03:00,crh,3.53
2022-09-19T04:04:00,crh,3.33
2022-09-19T04:05:00,crh,4.86
2022-09-19T04:06:00,crh,4.87
2022-09-19T04:07:00,crh,6.02
2022-09-19T04:08:00,crh,4.86
2022-09-19T04:09:00,crh,7.66
2022-09-19T04:10:00,crh,6.90
2022-09-19T04:11:00,crh,6.97
2022-09-19T04:12:00,crh,8.58
2022-09-19T04:13:00,crh,8.59
2022-09-19T04:14:00,crh,6.99
2022-09-19T04:15:00,crh,4.86
2022-09-19T04:16:00,crh,3.31
2022-09-19T04:17:00,crh,3.31
2022-09-19T04:18:00,crh,3.30
2022-09-19T04:19:00,crh,3.30
2022-09-19T04:20:00,crh,4.78
2022-09-19T04:21:00,crh,4.77
2022-09-19T04:22:00,crh,4.83
2022-09-19T04:23:00,crh,4.99
2022-09-19T04:24:00,crh,3.44
2022-09-19T04:25:00,crh,3.28
2022-09-19T04:26:00,crh,3.28
2022-09-19T04:27:00,crh,3.27
2022-09-19T04:28:00,crh,3.27
2022-09-19T04:29:00,crh,4.82
2022-09-19T04:30:00,crh,4.76
2022-09-19T04:31:00,crh,3.22
2022-09-19T04:32:00,crh,3.27
2022-09-19T04:33:00,crh,3.22
2022-09-19T04:34:00,crh,3.43
2022-09-19T04:35:00,crh,4.77
2022-09-19T04:36:00,crh,4.76
2022-09-19T04:37:00,crh,3.21
2022-09-19T04:38:00,crh,3.22
2022-09-19T04:39:00,crh,3.22
2022-09-19T04:40:00,crh,2.84
2022-09-19T04:41:00,crh,2.85
2022-09-19T04:42:00,crh,2.83
2022-09-19T04:43:00,crh,2.83
2022-09-19T04:44:00,crh,2.85
2022-09-19T04:45:00,crh,2.83
2022-09-19T04:46:00,crh,2.84
2022-09-19T04:47:00,crh,2.84
2022-09-19T04:48:00,crh,2.83
2022-09-19T04:49:00,crh,2.84
2022-09-19T04:50:00,crh,2.83
2022-09-19T04:51:00,crh,4.01
2022-09-19T04:52:00,crh,2.83
2022-09-19T04:53:00,crh,4.38
2022-09-19T04:54:00,crh,4.39
2022-09-19T04:55:00,crh,2.83
2022-09-19T04:56:00,crh,2.96
2022-09-19T04:57:00,crh,3.59
2022-09-19T04:58:00,crh,3.00
2022-09-19T04:59:00,crh,4.22
2022-09-19T05:00:00,crh,2.99
2022-09-19T05:01:00,crh,2.99
2022-09-19T05:02:00,crh,4.53
2022-09-19T05:03:00,crh,2.99
2022-09-19T05:04:00,crh,4.54
2022-09-19T05:05:00,crh,2.99
2022-09-19T05:06:00,crh,2.93
2022-09-19T05:07:00,crh,2.93
2022-09-19T05:08:00,crh,2.93
2022-09-19T05:09:00,crh,5.70
2022-09-19T05:10:00,crh,2.93
2022-09-19T05:11:00,crh,2.93
2022-09-19T05:12:00,crh,2.93
2022-09-19T05:13:00,crh,6.62
2022-09-19T05:14:00,crh,8.35
2022-09-19T05:15:00,crh,8.30
2022-09-19T05:16:00,crh,6.67
2022-09-19T05:17:00,crh,6.67
2022-09-19T05:18:00,crh,2.92
2022-09-19T05:19:00,crh,4.48
2022-09-19T05:20:00,crh,4.39
2022-09-19T05:21:00,crh,2.84
2022-09-19T05:22:00,crh,2.84
2022-09-19T05:23:00,crh,2.84
2022-09-19T05:24:00,crh,2.84
2022-09-19T05:25:00,crh,2.86
2022-09-19T05:26:00,crh,2.85
2022-09-19T05:27:00,crh,2.84
2022-09-19T05:28:00,crh,4.38
2022-09-19T05:29:00,crh,2.84
2022-09-19T05:30:00,crh,2.83
2022-09-19T05:31:00,crh,4.12
2022-09-19T05:32:00,crh,6.39
2022-09-19T05:33:00,crh,6.31
2022-09-19T05:34:00,crh,6.47
2022-09-19T05:35:00,crh,4.90
2022-09-19T05:36:00,crh,4.96
2022-09-19T05:37:00,crh,2.90
2022-09-19T05:38:00,crh,4.43
2022-09-19T05:39:00,crh,4.44
2022-09-19T05:40:00,crh,2.90
2022-09-19T05:41:00,crh,2.90
2022-09-19T05:42:00,crh,2.84
2022-09-19T05:43:00,crh,2.91
2022-09-19T05:44:00,crh,4.38
2022-09-19T05:45:00,crh,4.37
2022-09-19T05:46:00,crh,4.37
2022-09-19T05:47:00,crh,2.83
2022-09-19T05:48:00,crh,2.83
2022-09-19T05:49:00,crh,2.85
2022-09-19T05:50:00,crh,2.85
2022-09-19T05:51:00,crh,2.83
2022-09-19T05:52:00,crh,4.37
2022-09-19T05:53:00,crh,2.84
2022-09-19T05:54:00,crh,2.83
2022-09-19T05:55:00,crh,2.84
2022-09-19T05:56:00,crh,2.85
2022-09-19T05:57:00,crh,2.83
2022-09-19T05:58:00,crh,2.91
2022-09-19T05:59:00,crh,4.37
2022-09-19T06:00:00,crh,4.37
2022-09-19T06:01:00,crh,4.41
2022-09-19T06:02:00,crh,4.39
2022-09-19T06:03:00,crh,4.53
2022-09-19T06:04:00,crh,4.53
2022-09-19T06:05:00,crh,2.85
2022-09-19T06:06:00,crh,4.36
2022-09-19T06:07:00,crh,2.97
2022-09-19T06:08:00,crh,3.15
2022-09-19T06:09:00,crh,3.02
2022-09-19T06:10:00,crh,3.01
2022-09-19T06:11:00,crh,4.53
2022-09-19T06:12:00,crh,3.00
2022-09-19T06:13:00,crh,3.00
2022-09-19T06:14:00,crh,3.05
2022-09-19T06:15:00,crh,3.02
2022-09-19T06:16:00,crh,3.01
2022-09-19T06:17:00,crh,4.24
2022-09-19T06:18:00,crh,4.46
2022-09-19T06:19:00,crh,6.41
2022-09-19T06:20:00,crh,8.66
2022-09-19T06:21:00,crh,8.20
2022-09-19T06:22:00,crh,6.71
2022-09-19T06:23:00,crh,6.67
2022-09-19T06:24:00,crh,6.79
2022-09-19T06:25:00,crh,2.95
2022-09-19T06:26:00,crh,2.94
2022-09-19T06:27:00,crh,2.93
2022-09-19T06:28:00,crh,2.93
2022-09-19T06:29:00,crh,4.37
2022-09-19T06:30:00,crh,4.38
2022-09-19T06:31:00,crh,2.85
2022-09-19T06:32:00,crh,2.77
2022-09-19T06:33:00,crh,2.76
2022-09-19T06:34:00,crh,2.76
2022-09-19T06:35:00,crh,2.80
2022-09-19T06:36:00,crh,2.76
2022-09-19T06:37:00,crh,4.23
2022-09-19T06:38:00,crh,2.77
2022-09-19T06:39:00,crh,2.77
2022-09-19T06:40:00,crh,2.78
2022-09-19T06:41:00,crh,4.28
2022-09-19T06:42:00,crh,2.76
2022-09-19T06:43:00,crh,4.28
2022-09-19T06:44:00,crh,2.75
2022-09-19T06:45:00,crh,3.26
2022-09-19T06:46:00,crh,3.33
2022-09-19T06:47:00,crh,3.39
2022-09-19T06:48:00,crh,2.83
2022-09-19T06:49:00,crh,2.82
2022-09-19T06:50:00,crh,2.82
2022-09-19T06:51:00,crh,4.36
2022-09-19T06:52:00,crh,4.35
2022-09-19T06:53:00,crh,2.98
2022-09-19T06:54:00,crh,2.93
2022-09-19T06:55:00,crh,3.03
2022-09-19T06:56:00,crh,3.12
2022-09-19T06:57:00,crh,3.12
2022-09-19T06:58:00,crh,3.12
2022-09-19T06:59:00,crh,4.83
2022-09-19T07:00:00,crh,3.32
2022-09-19T07:01:00,crh,3.81
2022-09-19T07:02:00,crh,6.94
2022-09-19T07:03:00,crh,5.88
2022-09-19T07:04:00,crh,5.82
2022-09-19T07:05:00,crh,5.85
2022-09-19T07:06:00,crh,15.62
2022-09-19T07:07:00,crh,13.44
2022-09-19T07:08:00,crh,14.81
2022-09-19T07:09:00,crh,4.26
2022-09-19T07:10:00,crh,5.68
2022-09-19T07:11:00,crh,5.89
2022-09-19T07:12:00,crh,4.38
2022-09-19T07:13:00,crh,4.27
2022-09-19T07:14:00,crh,6.06
2022-09-19T07:15:00,crh,5.17
2022-09-19T07:16:00,crh,5.48
2022-09-19T07:17:00,crh,5.50
2022-09-19T07:18:00,crh,5.55
2022-09-19T07:19:00,crh,5.60
2022-09-19T07:20:00,crh,6.16
2022-09-19T07:21:00,crh,5.69
2022-09-19T07:22:00,crh,7.13
2022-09-19T07:23:00,crh,7.26
2022-09-19T07:24:00,crh,16.69
2022-09-19T07:25:00,crh,5.51
2022-09-19T07:26:00,crh,5.79
2022-09-19T07:27:00,crh,9.08
2022-09-19T07:28:00,crh,9.40
2022-09-19T07:29:00,crh,13.87
2022-09-19T07:30:00,crh,10.75
2022-09-19T07:31:00,crh,9.20
2022-09-19T07:32:00,crh,9.14
2022-09-19T07:33:00,crh,5.45
2022-09-19T07:34:00,crh,5.06
2022-09-19T07:35:00,crh,6.52
2022-09-19T07:36:00,crh,4.99
2022-09-19T07:37:00,crh,4.96
2022-09-19T07:38:00,crh,4.95
2022-09-19T07:39:00,crh,4.98
2022-09-19T07:40:00,crh,4.95
2022-09-19T07:41:00,crh,4.95
2022-09-19T07:42:00,crh,6.64
2022-09-19T07:43:00,crh,6.63
2022-09-19T07:44:00,crh,5.10
2022-09-19T07:45:00,crh,6.48
2022-09-19T07:46:00,crh,5.08
2022-09-19T07:47:00,crh,4.94
2022-09-19T07:48:00,crh,6.52
2022-09-19T07:49:00,crh,5.40
2022-09-19T07:50:00,crh,7.01
2022-09-19T07:51:00,crh,6.90
2022-09-19T07:52:00,crh,6.88
2022-09-19T07:53:00,crh,7.61
2022-09-19T07:54:00,crh,4.89
2022-09-19T07:55:00,crh,4.89
2022-09-19T07:56:00,crh,4.90
2022-09-19T07:57:00,crh,4.95
2022-09-19T07:58:00,crh,4.95
2022-09-19T07:59:00,crh,6.49
2022-09-19T08:00:00,crh,6.50
2022-09-19T08:01:00,crh,4.94
2022-09-19T08:02:00,crh,6.92
2022-09-19T08:03:00,crh,6.65
2022-09-19T08:04:00,crh,5.42
2022-09-19T08:05:00,crh,6.94
2022-09-19T08:06:00,crh,5.33
2022-09-19T08:07:00,crh,5.34
2022-09-19T08:08:00,crh,6.65
2022-09-19T08:09:00,crh,5.33
2022-09-19T08:10:00,crh,6.87
2022-09-19T08:11:00,crh,6.98
2022-09-19T08:12:00,crh,6.90
2022-09-19T08:13:00,crh,6.98
2022-09-19T08:14:00,crh,5.43
2022-09-19T08:15:00,crh,6.98
2022-09-19T08:16:00,crh,5.45
2022-09-19T08:17:00,crh,6.97
2022-09-19T08:18:00,crh,5.43
2022-09-19T08:19:00,crh,5.44
2022-09-19T08:20:00,crh,6.97
2022-09-19T08:21:00,crh,5.44
2022-09-19T08:22:00,crh,5.43
2022-09-19T08:23:00,crh,5.44
2022-09-19T08:24:00,crh,5.44
2022-09-19T08:25:00,crh,5.44
2022-09-19T08:26:00,crh,6.97
2022-09-19T08:27:00,crh,6.98
2022-09-19T08:28:00,crh,5.43
2022-09-19T08:29:00,crh,6.97
2022-09-19T08:30:00,crh,5.44
2022-09-19T08:31:00,crh,5.51
2022-09-19T08:32:00,crh,9.15
2022-09-19T08:33:00,crh,11.21
2022-09-19T08:34:00,crh,12.43
2022-09-19T08:35:00,crh,11.15
2022-09-19T08:36:00,crh,12.72
2022-09-19T08:37:00,crh,12.19
2022-09-19T08:38:00,crh,4.94
2022-09-19T08:39:00,crh,4.94
2022-09-19T08:40:00,crh,4.87
2022-09-19T08:41:00,crh,6.41
2022-09-19T08:42:00,crh,4.88
2022-09-19T08:43:00,crh,4.87
2022-09-19T08:44:00,crh,4.52
2022-09-19T08:45:00,crh,4.47
2022-09-19T08:46:00,crh,4.49
2022-09-19T08:47:00,crh,4.94
2022-09-19T08:48:00,crh,6.46
2022-09-19T08:49:00,crh,6.47
2022-09-19T08:50:00,crh,4.93
2022-09-19T08:51:00,crh,4.92
2022-09-19T08:52:00,crh,4.92
2022-09-19T08:53:00,crh,4.93
2022-09-19T08:54:00,crh,4.93
2022-09-19T08:55:00,crh,4.94
2022-09-19T08:56:00,crh,6.46
2022-09-19T08:57:00,crh,7.08
2022-09-19T08:58:00,crh,5.03
2022-09-19T08:59:00,crh,5.02
2022-09-19T09:00:00,crh,5.03
2022-09-19T09:01:00,crh,6.56
2022-09-19T09:02:00,crh,5.02
2022-09-19T09:03:00,crh,5.03
2022-09-19T09:04:00,crh,4.97
2022-09-19T09:05:00,crh,5.07
2022-09-19T09:06:00,crh,4.96
2022-09-19T09:07:00,crh,5.04
2022-09-19T09:08:00,crh,5.15
2022-09-19T09:09:00,crh,6.67
2022-09-19T09:10:00,crh,5.14
2022-09-19T09:11:00,crh,6.66
2022-09-19T09:12:00,crh,5.12
2022-09-19T09:13:00,crh,5.11
2022-09-19T09:14:00,crh,5.10
2022-09-19T09:15:00,crh,5.32
2022-09-19T09:16:00,crh,5.52
2022-09-19T09:17:00,crh,5.53
2022-09-19T09:18:00,crh,7.54
2022-09-19T09:19:00,crh,5.59
2022-09-19T09:20:00,crh,6.16
2022-09-19T09:21:00,crh,7.06
2022-09-19T09:22:00,crh,7.20
2022-09-19T09:23:00,crh,6.76
2022-09-19T09:24:00,crh,6.76
2022-09-19T09:25:00,crh,5.07
2022-09-19T09:26:00,crh,5.07
2022-09-19T09:27:00,crh,5.07
2022-09-19T09:28:00,crh,5.06
2022-09-19T09:29:00,crh,5.06
2022-09-19T09:30:00,crh,5.06
2022-09-19T09:31:00,crh,6.59
2022-09-19T09:32:00,crh,6.61
2022-09-19T09:33:00,crh,5.07
2022-09-19T09:34:00,crh,6.60
2022-09-19T09:35:00,crh,5.13
2022-09-19T09:36:00,crh,6.69
2022-09-19T09:37:00,crh,6.67
2022-09-19T09:38:00,crh,8.69
2022-09-19T09:39:00,crh,8.89
2022-09-19T09:40:00,crh,9.28
2022-09-19T09:41:00,crh,9.34
2022-09-19T09:42:00,crh,9.36
2022-09-19T09:43:00,crh,10.38
2022-09-19T09:44:00,crh,7.10
2022-09-19T09:45:00,crh,5.56
2022-09-19T09:46:00,crh,5.56
2022-09-19T09:47:00,crh,5.61
2022-09-19T09:48:00,crh,5.56
2022-09-19T09:49:00,crh,7.09
2022-09-19T09:50:00,crh,7.03
2022-09-19T09:51:00,crh,5.49
2022-09-19T09:52:00,crh,5.49
2022-09-19T09:53:00,crh,5.50
2022-09-19T09:54:00,crh,5.50
2022-09-19T09:55:00,crh,5.50
2022-09-19T09:56:00,crh,5.45
2022-09-19T09:57:00,crh,5.46
2022-09-19T09:58:00,crh,5.57
2022-09-19T09:59:00,crh,5.71
2022-09-19T10:00:00,crh,5.74
2022-09-19T10:01:00,crh,5.77
2022-09-19T10:02:00,crh,7.33
2022-09-19T10:03:00,crh,5.80
2022-09-19T10:04:00,crh,5.80
2022-09-19T10:05:00,crh,5.79
2022-09-19T10:06:00,crh,5.81
2022-09-19T10:07:00,crh,7.31
2022-09-19T10:08:00,crh,5.79
2022-09-19T10:09:00,crh,7.47
2022-09-19T10:10:00,crh,7.75
2022-09-19T10:11:00,crh,18.57
2022-09-19T10:12:00,crh,8.01
2022-09-19T10:13:00,crh,9.54
2022-09-19T10:14:00,crh,6.01
2022-09-19T10:15:00,crh,5.88
2022-09-19T10:16:00,crh,15.43
2022-09-19T10:17:00,crh,15.30
2022-09-19T10:18:00,crh,16.77
2022-09-19T10:19:00,crh,16.61
2022-09-19T10:20:00,crh,5.95
2022-09-19T10:21:00,crh,7.94
2022-09-19T10:22:00,crh,6.11
2022-09-19T10:23:00,crh,6.18
2022-09-19T10:24:00,crh,6.16
2022-09-19T10:25:00,crh,6.36
2022-09-19T10:26:00,crh,7.91
2022-09-19T10:27:00,crh,7.84
2022-09-19T10:28:00,crh,7.85
2022-09-19T10:29:00,crh,7.51
2022-09-19T10:30:00,crh,7.84
2022-09-19T10:31:00,crh,7.85
2022-09-19T10:32:00,crh,6.29
2022-09-19T10:33:00,crh,6.30
2022-09-19T10:34:00,crh,6.30
2022-09-19T10:35:00,crh,7.40
2022-09-19T10:36:00,crh,7.82
2022-09-19T10:37:00,crh,7.67
2022-09-19T10:38:00,crh,6.26
2022-09-19T10:39:00,crh,7.69
2022-09-19T10:40:00,crh,11.23
2022-09-19T10:41:00,crh,10.61
2022-09-19T10:42:00,crh,10.58
2022-09-19T10:43:00,crh,12.09
2022-09-19T10:44:00,crh,10.64
2022-09-19T10:45:00,crh,10.61
2022-09-19T10:46:00,crh,6.77
2022-09-19T10:47:00,crh,6.72
2022-09-19T10:48:00,crh,8.30
2022-09-19T10:49:00,crh,8.23
2022-09-19T10:50:00,crh,6.75
2022-09-19T10:51:00,crh,6.70
2022-09-19T10:52:00,crh,8.29
2022-09-19T10:53:00,crh,6.72
2022-09-19T10:54:00,crh,7.10
2022-09-19T10:55:00,crh,8.10
2022-09-19T10:56:00,crh,7.02
2022-09-19T10:57:00,crh,7.23
2022-09-19T10:58:00,crh,7.03
2022-09-19T10:59:00,crh,8.15
2022-09-19T11:00:00,crh,6.87
2022-09-19T11:01:00,crh,8.40
2022-09-19T11:02:00,crh,6.97
2022-09-19T11:03:00,crh,6.97
2022-09-19T11:04:00,crh,7.99
2022-09-19T11:05:00,crh,6.87
2022-09-19T11:06:00,crh,6.80
2022-09-19T11:07:00,crh,7.51
2022-09-19T11:08:00,crh,8.31
2022-09-19T11:09:00,crh,7.08
2022-09-19T11:10:00,crh,6.85
2022-09-19T11:11:00,crh,7.42
2022-09-19T11:12:00,crh,7.99
2022-09-19T11:13:00,crh,8.02
2022-09-19T11:14:00,crh,8.46
2022-09-19T11:15:00,crh,6.89
2022-09-19T11:16:00,crh,6.97
2022-09-19T11:17:00,crh,6.86
2022-09-19T11:18:00,crh,8.30
2022-09-19T11:19:00,crh,6.87
2022-09-19T11:20:00,crh,7.44
2022-09-19T11:21:00,crh,8.04
2022-09-19T11:22:00,crh,7.71
2022-09-19T11:23:00,crh,8.37
2022-09-19T11:24:00,crh,6.76
2022-09-19T11:25:00,crh,6.93
2022-09-19T11:26:00,crh,6.77
2022-09-19T11:27:00,crh,6.84
2022-09-19T11:28:00,crh,6.76
2022-09-19T11:29:00,crh,8.38
2022-09-19T11:30:00,crh,6.95
2022-09-19T11:31:00,crh,6.91
2022-09-19T11:32:00,crh,7.15
2022-09-19T11:33:00,crh,6.54
2022-09-19T11:34:00,crh,6.62
2022-09-19T11:35:00,crh,6.55
2022-09-19T11:36:00,crh,8.15
2022-09-19T11:37:00,crh,8.52
2022-09-19T11:38:00,crh,8.51
2022-09-19T11:39:00,crh,12.99
2022-09-19T11:40:00,crh,12.29
2022-09-19T11:41:00,crh,15.42
2022-09-19T11:42:00,crh,10.48
2022-09-19T11:43:00,crh,10.54
2022-09-19T11:44:00,crh,10.45
2022-09-19T11:45:00,crh,12.03
2022-09-19T11:46:00,crh,6.67
2022-09-19T11:47:00,crh,6.57
2022-09-19T11:48:00,crh,8.18
2022-09-19T11:49:00,crh,7.24
2022-09-19T11:50:00,crh,6.55
2022-09-19T11:51:00,crh,5.98
2022-09-19T11:52:00,crh,8.30
2022-09-19T11:53:00,crh,6.14
2022-09-19T11:54:00,crh,7.51
2022-09-19T11:55:00,crh,7.52
2022-09-19T11:56:00,crh,6.04
2022-09-19T11:57:00,crh,6.04
2022-09-19T11:58:00,crh,5.97
2022-09-19T11:59:00,crh,8.02
2022-09-19T12:00:00,crh,5.97
2022-09-19T12:01:00,crh,6.05
2022-09-19T12:02:00,crh,5.99
2022-09-19T12:03:00,crh,5.87
2022-09-19T12:04:00,crh,7.32
2022-09-19T12:05:00,crh,6.42
2022-09-19T12:06:00,crh,5.93
2022-09-19T12:07:00,crh,5.88
2022-09-19T12:08:00,crh,7.46
2022-09-19T12:09:00,crh,7.40
2022-09-19T12:10:00,crh,5.93
2022-09-19T12:11:00,crh,6.56
2022-09-19T12:12:00,crh,6.41
2022-09-19T12:13:00,crh,7.73
2022-09-19T12:14:00,crh,5.81
2022-09-19T12:15:00,crh,7.13
2022-09-19T12:16:00,crh,5.90
2022-09-19T12:17:00,crh,6.07
2022-09-19T12:18:00,crh,5.86
2022-09-19T12:19:00,crh,7.39
2022-09-19T12:20:00,crh,6.13
2022-09-19T12:21:00,crh,8.03
2022-09-19T12:22:00,crh,7.32
2022-09-19T12:23:00,crh,7.32
2022-09-19T12:24:00,crh,5.82
2022-09-19T12:25:00,crh,5.75
2022-09-19T12:26:00,crh,7.37
2022-09-19T12:27:00,crh,5.76
2022-09-19T12:28:00,crh,5.83
2022-09-19T12:29:00,crh,5.75
2022-09-19T12:30:00,crh,5.74
2022-09-19T12:31:00,crh,5.85
2022-09-19T12:32:00,crh,5.74
2022-09-19T12:33:00,crh,6.48
2022-09-19T12:34:00,crh,7.36
2022-09-19T12:35:00,crh,6.15
2022-09-19T12:36:00,crh,11.17
2022-09-19T12:37:00,crh,9.79
2022-09-19T12:38:00,crh,12.04
2022-09-19T12:39:00,crh,9.81
2022-09-19T12:40:00,crh,20.44
2022-09-19T12:41:00,crh,9.77
2022-09-19T12:42:00,crh,10.01
2022-09-19T12:43:00,crh,6.13
2022-09-19T12:44:00,crh,5.91
2022-09-19T12:45:00,crh,5.91
2022-09-19T12:46:00,crh,7.46
2022-09-19T12:47:00,crh,5.94
2022-09-19T12:48:00,crh,5.93
2022-09-19T12:49:00,crh,5.88
2022-09-19T12:50:00,crh,5.83
2022-09-19T12:51:00,crh,6.82
2022-09-19T12:52:00,crh,6.54
2022-09-19T12:53:00,crh,7.35
2022-09-19T12:54:00,crh,5.86
2022-09-19T12:55:00,crh,15.30
2022-09-19T12:56:00,crh,14.98
2022-09-19T12:57:00,crh,14.87
2022-09-19T12:58:00,crh,7.20
2022-09-19T12:59:00,crh,5.68
2022-09-19T13:00:00,crh,5.67
2022-09-19T13:01:00,crh,7.66
2022-09-19T13:02:00,crh,9.07
2022-09-19T13:03:00,crh,9.14
2022-09-19T13:04:00,crh,7.73
2022-09-19T13:05:00,crh,7.76
2022-09-19T13:06:00,crh,5.59
2022-09-19T13:07:00,crh,7.12
2022-09-19T13:08:00,crh,5.60
2022-09-19T13:09:00,crh,5.58
2022-09-19T13:10:00,crh,4.86
2022-09-19T13:11:00,crh,4.88
2022-09-19T13:12:00,crh,4.87
2022-09-19T13:13:00,crh,4.91
2022-09-19T13:14:00,crh,4.86
2022-09-19T13:15:00,crh,4.87
2022-09-19T13:16:00,crh,5.46
2022-09-19T13:17:00,crh,6.54
2022-09-19T13:18:00,crh,4.98
2022-09-19T13:19:00,crh,4.92
2022-09-19T13:20:00,crh,4.96
2022-09-19T13:21:00,crh,6.43
2022-09-19T13:22:00,crh,4.92
2022-09-19T13:23:00,crh,4.90
2022-09-19T13:24:00,crh,4.89
2022-09-19T13:25:00,crh,6.44
2022-09-19T13:26:00,crh,4.82
2022-09-19T13:27:00,crh,6.38
2022-09-19T13:28:00,crh,6.33
2022-09-19T13:29:00,crh,4.82
2022-09-19T13:30:00,crh,4.81
2022-09-19T13:31:00,crh,16.83
2022-09-19T13:32:00,crh,5.17
2022-09-19T13:33:00,crh,9.02
2022-09-19T13:34:00,crh,10.39
2022-09-19T13:35:00,crh,8.88
2022-09-19T13:36:00,crh,8.86
2022-09-19T13:37:00,crh,10.39
2022-09-19T13:38:00,crh,8.99
2022-09-19T13:39:00,crh,8.97
2022-09-19T13:40:00,crh,5.08
2022-09-19T13:41:00,crh,6.15
2022-09-19T13:42:00,crh,5.04
2022-09-19T13:43:00,crh,5.15
2022-09-19T13:44:00,crh,7.34